Location: Clarks Summit,Pa.
(41.5000°N, 75.6000°W)
Time: 02:17:51
(UTC-05:00)

Envisat - Pass Details

Date: 30 November 2021
Orbit: 764 x 766 km, 98.2° (Epoch: 18 January)

Event Time Altitude Azimuth Distance (km) Brightness Sun altitude
Rises 04:42:13 0° 17° (NNE) 3,242 6.4 -26.8°
Reaches altitude 10° 04:44:36 10° 23° (NNE) 2,311 5.6 -26.4°
Maximum altitude 04:49:34 53° 100° (E) 936 3.7 -25.5°
Drops below altitude 10° 04:54:30 10° 177° (S) 2,293 5.6 -24.5°
Sets 04:56:51 0° 182° (S) 3,215 6.3 -24.1°
